TimePST,TemperatureF,Dew PointF,Humidity,Sea Level PressureIn,VisibilityMPH,Wind Direction,Wind SpeedMPH,Gust SpeedMPH,PrecipitationIn,Events,Conditions,WindDirDegrees,DateUTC
12:48 AM,50.0,-18.0,5,30.04,10.0,NNW,10.4,-,N/A,,Clear,330,2013-02-07 08:48:00
1:48 AM,52.0,-16.1,6,30.03,10.0,NW,8.1,-,N/A,,Clear,320,2013-02-07 09:48:00
2:48 AM,53.1,-11.0,7,30.01,10.0,WNW,5.8,-,N/A,,Clear,300,2013-02-07 10:48:00
3:48 AM,50.0,-2.9,11,30.01,10.0,SSW,5.8,-,N/A,,Clear,200,2013-02-07 11:48:00
4:48 AM,48.0,5.0,17,30.01,10.0,SSW,5.8,-,N/A,,Clear,200,2013-02-07 12:48:00
5:48 AM,44.1,9.0,24,30.04,10.0,SSW,4.6,-,N/A,,Clear,210,2013-02-07 13:48:00
6:48 AM,41.0,21.0,45,30.05,10.0,SSW,10.4,-,N/A,,Clear,200,2013-02-07 14:48:00
7:48 AM,42.1,21.0,43,30.05,10.0,SSW,9.2,-,N/A,,Clear,200,2013-02-07 15:48:00
8:48 AM,46.0,28.9,51,30.04,10.0,SSW,11.5,-,N/A,,Clear,210,2013-02-07 16:48:00
9:48 AM,48.9,30.0,48,30.03,10.0,SSW,13.8,-,N/A,,Clear,210,2013-02-07 17:48:00
10:48 AM,51.8,30.2,44,30.09,10.0,South,15.0,20.7,N/A,,Clear,180,2013-02-07 18:48:00
11:48 AM,54.0,32.0,43,29.98,10.0,South,15.0,25.3,N/A,,Clear,180,2013-02-07 19:48:00
12:48 PM,53.1,35.1,50,29.94,10.0,South,18.4,26.5,N/A,,Clear,170,2013-02-07 20:48:00
1:48 PM,52.0,35.1,53,29.90,10.0,SSE,21.9,31.1,N/A,,Clear,160,2013-02-07 21:48:00
2:48 PM,48.0,36.0,63,29.91,7.0,WSW,13.8,-,N/A,,Clear,250,2013-02-07 22:48:00
3:37 PM,44.6,35.6,71,29.99,6.0,WNW,11.5,-,N/A,,Haze,300,2013-02-07 23:37:00
3:48 PM,42.1,34.0,73,29.94,1.2,WNW,10.4,-,N/A,,Haze,300,2013-02-07 23:48:00
3:51 PM,39.2,33.8,81,29.99,0.2,NW,16.1,-,N/A,,Haze,320,2013-02-07 23:51:00
3:59 PM,39.2,33.8,81,30.00,0.2,NW,12.7,-,N/A,,Haze,310,2013-02-07 23:59:00
4:13 PM,37.4,33.8,87,30.00,0.5,NW,11.5,-,N/A,,Haze,320,2013-02-08 00:13:00
4:18 PM,37.4,33.8,87,30.00,1.5,NW,10.4,-,N/A,,Haze,320,2013-02-08 00:18:00
4:22 PM,37.4,33.8,87,30.00,3.0,NW,11.5,-,N/A,,Haze,310,2013-02-08 00:22:00
4:26 PM,39.2,33.8,81,30.00,5.0,NNW,11.5,-,N/A,,Haze,330,2013-02-08 00:26:00
4:48 PM,39.0,32.0,76,29.94,7.0,NW,9.2,-,N/A,,Overcast,320,2013-02-08 00:48:00
5:18 PM,39.2,30.2,70,29.98,9.0,NW,12.7,-,N/A,,Overcast,320,2013-02-08 01:18:00
5:48 PM,37.9,30.9,76,29.94,10.0,NW,10.4,-,N/A,,Overcast,320,2013-02-08 01:48:00
6:48 PM,37.0,30.9,79,29.94,7.0,NW,9.2,-,N/A,,Overcast,320,2013-02-08 02:48:00
7:09 PM,37.4,30.2,75,29.97,8.0,WNW,10.4,-,N/A,,Mostly Cloudy,300,2013-02-08 03:09:00
7:48 PM,36.0,30.0,79,29.94,8.0,NW,12.7,-,N/A,,Clear,310,2013-02-08 03:48:00
8:48 PM,37.0,26.1,65,29.91,10.0,NW,13.8,-,N/A,,Partly Cloudy,310,2013-02-08 04:48:00
9:48 PM,35.1,27.0,72,29.89,10.0,West,6.9,-,N/A,,Clear,260,2013-02-08 05:48:00
10:23 PM,35.6,30.2,81,29.93,10.0,SSW,5.8,-,N/A,,Mostly Cloudy,210,2013-02-08 06:23:00
10:32 PM,37.4,30.2,75,29.93,9.0,SW,5.8,-,N/A,,Overcast,220,2013-02-08 06:32:00
10:36 PM,37.4,30.2,75,29.93,8.0,SSW,4.6,-,N/A,,Overcast,200,2013-02-08 06:36:00
11:40 PM,35.6,30.2,81,29.92,5.0,Calm,Calm,-,N/A,,Haze,0,2013-02-08 07:40:00
11:48 PM,35.1,30.0,82,29.86,6.0,NNW,6.9,-,N/A,,Haze,340,2013-02-08 07:48:00